Flag for U.S.A. Weather past 2 weeks in Oklahoma City, Oklahoma, U.S.A.

Now
20 °F

Mostly cloudy.


Feels Like: 9 °F
Forecast: 13 / 25 °F
Wind: 9 mph from Northeast

Location: Will Rogers World Airport

Current Time: Feb 27, 2015 at 11:30:27 AM

Latest Report: Feb 27, 2015 at 10:52 AM


Visibility: 10 mi

Pressure: 30.59 "Hg

Humidity: 43%

Dew point: 1 °F

Location of Oklahoma CityLocation

Historic Weather in Oklahoma City — Graph

°F

Oklahoma City temperature yesterday

Maximum temperature yesterday: 34 °F (at 12:52 AM)
Minimum temperature yesterday: 21 °F (at 7:52 AM)
Average temperature yesterday: 27 °F

Past Weeks' High & Low Weather Summary

 TemperatureHumidityPressure
High79 °F (Feb 14, 3:52 PM)93% (Feb 20, 10:52 PM)30.68 "Hg (Feb 20, 10:52 PM)
Low18 °F (Feb 27, 7:52 AM)19% (Feb 14, 3:52 PM)29.67 "Hg (Feb 20, 8:04 PM)
Average36 °F57%30.20 "Hg
* Reported Feb 12 9:52 AM — Feb 27 9:52 AM, Oklahoma City, Weather by CustomWeather, © 2015

Note: Actual official high and low records may vary slightly from our data, if they occured in-between our weather recording intervals... More about our weather records

Advertising

Oklahoma City weather history for previous 24 hours

 ConditionsComfort  
Time TempWeatherWind HumidityBarometerVisibility
9:52 AM
Fri, Feb 27
19 °FOvercast.8 mph47%30.60 "Hg10 mi
8:52 AM19 °FOvercast.12 mph47%30.60 "Hg10 mi
7:52 AM18 °FPartly sunny.16 mph47%30.54 "Hg10 mi
6:52 AM19 °FOvercast.16 mph45%30.53 "Hg10 mi
5:52 AM19 °FOvercast.15 mph47%30.51 "Hg10 mi
4:52 AM19 °FMostly cloudy.16 mph47%30.51 "Hg10 mi
3:52 AM20 °FOvercast.16 mph43%30.49 "Hg10 mi
2:52 AM21 °FOvercast.18 mph40%30.50 "Hg10 mi
1:52 AM22 °FOvercast.13 mph38%30.53 "Hg10 mi
12:52 AM23 °FOvercast.13 mph36%30.53 "Hg10 mi
11:52 PM
Thu, Feb 26
23 °FClear.16 mph36%30.50 "Hg10 mi
10:52 PM24 °FPartly cloudy.14 mph36%30.50 "Hg10 mi
9:52 PM25 °FPartly cloudy.12 mph33%30.51 "Hg10 mi
8:52 PM26 °FPassing clouds.12 mph31%30.49 "Hg10 mi
7:52 PM27 °FPassing clouds.10 mph29%30.47 "Hg10 mi
6:52 PM27 °FPassing clouds.16 mph28%30.44 "Hg10 mi
5:52 PM29 °FPartly sunny.15 mph27%30.41 "Hg10 mi
4:52 PM30 °FBroken clouds.21 mph27%30.40 "Hg10 mi
3:52 PM31 °FPartly sunny.18 mph29%30.40 "Hg10 mi
2:52 PM29 °FPartly sunny.18 mph31%30.39 "Hg10 mi
1:52 PM30 °FBroken clouds.20 mph33%30.39 "Hg10 mi
12:52 PM29 °FPartly sunny.23 mph41%30.39 "Hg10 mi
11:52 AM29 °FPartly sunny.22 mph41%30.41 "Hg10 mi
Weather by CustomWeather, © 2015

See weather overviewHow to use our weather pages